Lapse_Rate
5.0 4.5 4.4 3.9 3.6 3.3 2.7 2.1 1.8 1.8 2.2 2.1 1.9 1.6 1.7 1.9 3.6 6.4 5.5 5.7 4.3 4.7 2.6 2.4 3.9 3.9 4.9 4.8 6.0 5.3 6.5 6.5 6.5 6.5 6.5 6.0 6.4 4.9 5.5 5.4 6.2 6.0 6.1 6.0 6.6
5.0 4.7 4.4 4.3 4.0 3.4 2.9 2.3 2.1 2.0 2.2 1.9 1.7 1.6 1.8 1.5 3.7 6.1 7.0 6.8 5.9 4.1 3.5 3.6 3.6 3.3 4.2 5.0 4.8 5.2 6.5 6.5 6.5 6.4 6.5 6.0 4.6 5.1 5.6 6.4 6.5 5.6 5.3 5.0 5.1
4.8 4.4 4.2 4.0 3.8 3.1 2.6 2.1 1.7 1.9 1.9 1.7 1.8 1.8 1.9 1.4 5.4 6.7 7.8 7.1 6.6 4.9 3.3 3.8 3.5 4.0 6.2 5.6 5.2 5.7 6.5 6.5 6.2 5.3 5.5 5.8 4.9 4.7 5.4 6.5 6.8 5.9 5.4 5.3 5.3
5.0 4.5 4.1 3.9 3.8 3.2 2.4 1.8 1.6 1.7 2.0 1.7 2.0 2.0 1.9 3.4 6.5 7.1 7.9 7.8 7.1 5.9 4.0 5.1 4.3 5.9 6.4 6.5 5.4 6.4 5.8 5.3 6.0 4.6 5.2 6.0 5.3 6.2 5.8 6.0 5.5 5.6 5.9 5.5 5.1
5.1 4.6 3.8 3.5 3.2 2.5 2.0 1.8 1.6 1.8 2.1 1.9 2.0 1.9 3.9 5.3 6.5 7.7 8.0 7.8 6.8 6.0 6.2 5.1 4.8 5.7 6.5 6.4 5.7 6.5 6.4 5.4 4.8 3.9 3.9 4.9 5.7 6.1 6.6 6.7 5.0 4.5 3.7 3.6 2.4
5.2 4.8 4.1 3.6 3.0 2.4 1.9 1.5 1.3 1.4 1.6 1.7 2.3 2.6 4.7 6.2 7.4 7.4 6.2 7.1 7.0 6.0 6.3 5.2 5.7 5.5 6.0 6.2 6.3 5.8 5.8 5.7 4.9 4.4 5.2 6.5 6.4 5.7 6.8 4.8 4.1 4.3 5.5 4.0 3.4
5.0 4.5 3.9 3.3 2.7 2.3 1.9 1.3 1.1 1.5 1.6 1.8 2.1 3.3 4.7 5.6 7.3 6.4 5.6 7.4 7.8 7.2 6.6 6.2 4.9 5.5 5.6 6.5 6.4 6.0 6.5 6.4 6.2 5.7 6.2 5.4 6.5 6.5 6.9 4.7 5.7 4.8 4.6 4.3 3.7
4.8 4.3 3.6 2.8 2.3 1.8 1.4 0.8 0.7 2.3 2.0 1.9 1.7 3.8 5.1 7.2 7.3 6.3 7.0 6.5 6.9 7.9 7.3 6.4 5.5 5.2 6.1 5.9 6.0 6.5 6.5 6.5 6.5 5.9 5.6 5.4 6.5 6.5 6.8 4.6 6.4 6.1 5.1 3.9 4.6
4.9 4.3 3.6 2.9 2.3 1.6 1.0 0.6 0.9 2.6 3.6 2.8 4.9 5.9 4.8 7.7 6.8 7.2 7.7 7.0 6.2 7.1 6.4 7.3 6.4 5.2 4.4 6.5 6.5 6.5 6.5 6.5 6.5 5.9 6.5 6.5 6.5 6.5 7.1 7.0 6.8 5.9 5.4 5.7 4.5
5.1 4.4 3.7 3.1 2.4 1.5 0.8 1.1 3.5 3.1 5.0 5.6 6.0 5.9 6.3 7.1 7.3 7.1 7.2 7.4 7.1 5.9 6.0 6.0 3.4 6.5 6.5 6.5 6.5 6.5 6.5 6.5 6.5 6.5 6.5 6.5 6.5 6.4 7.0 6.9 6.8 6.5 6.1 5.8 5.6
5.0 4.5 3.7 3.0 2.4 1.5 0.1 0.8 3.5 4.5 4.3 5.5 6.1 6.2 7.2 7.4 7.2 6.8 7.1 6.3 6.1 6.4 6.5 5.1 6.5 6.5 6.5 6.5 6.5 6.5 6.5 6.5 6.5 6.5 6.5 6.5 6.5 6.5 6.7 6.6 6.5 6.4 6.3 5.9 5.7
5.1 4.5 3.8 2.9 2.2 1.6 0.9 4.7 6.9 6.6 4.9 5.0 5.6 7.0 7.6 7.2 6.6 6.2 6.3 6.0 6.2 6.5 6.3 6.5 6.5 6.5 6.5 6.5 6.5 6.5 6.5 6.5 6.5 6.5 6.5 6.5 6.5 6.5 6.4 6.4 6.5 6.6 6.3 6.4 5.9
5.2 4.6 3.8 2.7 2.1 1.6 3.5 6.2 6.4 6.1 5.5 5.7 6.4 6.9 7.0 7.0 6.5 6.2 6.4 5.5 6.5 6.5 6.5 6.5 6.5 6.5 6.5 6.5 6.5 6.5 6.5 6.5 6.5 6.5 6.5 6.5 6.5 6.5 6.5 6.4 6.7 6.3 6.4 6.2 5.9
5.5 4.6 3.6 2.8 3.3 1.3 5.6 6.6 6.5 4.6 6.5 6.5 6.5 6.9 7.1 6.5 6.5 7.3 7.1 6.6 6.3 6.5 6.5 6.5 6.4 6.5 6.5 6.5 6.5 6.5 6.5 6.5 6.5 6.5 6.5 6.5 6.5 6.5 6.5 6.5 6.5 5.8 4.9 4.7 4.8
5.9 4.9 3.9 3.4 1.1 3.7 6.2 5.8 5.4 3.3 6.5 6.5 6.4 7.7 6.7 6.1 6.5 6.8 7.0 5.9 6.5 6.5 6.5 6.5 6.5 6.5 6.5 6.5 6.5 6.5 6.5 6.5 6.5 6.5 6.5 6.5 6.5 6.5 6.5 6.5 6.5 6.0 5.6 4.4 3.8
6.6 5.3 4.2 2.6 1.4 3.5 4.1 4.6 3.4 6.5 6.5 6.5 6.4 6.4 6.4 6.5 6.6 6.5 6.5 6.2 6.3 6.5 6.5 6.5 6.0 6.5 6.5 6.5 6.5 6.5 6.5 6.5 6.5 6.5 6.5 6.5 6.5 6.5 6.5 6.5 6.5 6.2 6.0 5.4 4.5
7.2 5.7 4.3 4.0 3.9 4.4 3.3 3.5 6.5 6.5 6.5 6.5 6.5 6.5 6.5 6.5 6.5 6.5 6.5 6.5 6.5 6.5 6.5 6.5 6.5 6.5 6.5 6.5 6.5 6.5 6.5 6.5 6.5 6.5 6.5 6.5 6.5 6.5 6.5 6.5 6.3 6.2 5.8 4.9 4.6
7.3 6.0 4.3 3.9 5.2 3.8 3.5 6.2 6.5 6.5 6.5 6.5 6.5 6.5 6.5 6.5 6.5 6.5 6.5 6.5 6.5 6.5 6.5 6.5 6.5 6.5 6.5 6.5 6.5 6.5 6.5 6.5 6.5 6.5 6.5 6.5 6.5 6.5 6.5 5.8 5.8 5.8 5.0 4.6 4.5
6.9 3.9 2.6 2.6 5.2 3.7 5.5 6.5 6.5 6.5 6.5 6.5 6.5 6.5 6.5 6.5 6.5 6.5 6.5 6.5 6.5 6.5 6.5 6.5 6.5 6.5 6.5 6.5 6.5 6.5 6.5 6.5 6.5 6.5 6.5 6.5 6.5 6.5 6.5 6.4 5.7 5.1 5.2 3.7 3.6
5.1 4.3 3.1 5.4 5.5 4.1 6.4 6.5 6.5 6.5 6.5 6.5 6.5 6.5 6.5 6.5 6.5 6.5 6.5 6.5 6.5 6.5 6.0 6.5 6.5 6.5 6.5 6.5 6.3 6.5 6.5 6.5 6.5 6.5 6.5 6.5 6.5 6.5 6.5 6.5 6.4 5.7 4.2 3.2 3.3
5.3 5.3 4.0 5.4 4.4 4.1 6.5 6.5 6.5 6.4 6.6 6.5 6.5 6.5 6.5 6.5 6.5 6.5 6.5 6.5 6.5 6.5 6.4 6.5 6.5 6.5 6.5 6.5 6.5 6.5 6.5 6.5 6.5 6.5 6.5 6.5 6.5 6.5 6.5 6.5 6.5 4.5 3.6 3.3 3.1
5.6 6.2 4.9 5.2 4.9 3.9 6.5 6.5 6.3 6.4 6.3 6.4 6.5 6.5 6.5 6.5 6.5 6.5 6.5 6.5 5.4 5.7 6.5 6.5 6.5 6.5 6.5 6.5 6.5 6.5 6.5 6.5 6.5 6.5 6.5 6.5 6.5 6.5 6.6 5.2 4.5 4.1 4.3 3.7 3.8
6.0 4.9 6.6 5.9 6.5 6.5 6.3 6.5 6.5 6.5 6.5 6.5 6.5 6.5 6.5 6.5 6.5 6.5 6.5 6.3 4.9 6.3 6.5 6.5 6.5 6.5 6.5 6.5 6.5 6.5 6.5 6.5 6.5 6.5 6.5 6.5 6.5 6.4 5.7 5.9 5.4 5.1 5.3 5.1 5.6
6.7 6.5 4.1 6.4 4.7 6.3 6.5 6.5 6.5 6.2 6.3 6.4 6.5 6.4 6.5 6.5 6.5 6.5 6.5 6.5 5.7 5.9 6.0 5.5 6.5 6.5 6.5 6.5 6.5 6.5 6.5 6.5 6.5 6.5 6.5 6.5 6.5 6.5 6.5 6.5 5.4 4.6 4.2 4.3 4.7
6.1 6.1 6.1 6.5 6.5 6.5 6.4 6.5 6.5 6.5 6.2 6.1 6.5 6.5 6.5 6.5 6.5 6.5 6.5 6.5 6.2 6.4 6.1 6.5 6.5 6.5 6.5 6.5 6.5 6.5 6.5 6.5 6.5 6.5 6.5 6.5 6.5 6.5 6.5 6.4 4.8 4.4 4.9 5.4 5.6
6.0 6.3 5.6 6.1 5.7 6.5 6.5 6.5 6.5 6.5 6.5 6.5 6.5 6.5 6.5 6.5 6.5 6.5 6.5 6.5 6.5 6.5 6.5 6.4 6.5 6.5 6.5 6.5 6.5 6.5 6.5 6.5 6.5 6.5 6.5 6.5 6.5 6.4 5.1 4.5 5.1 5.3 5.4 5.4 5.4
5.4 6.2 6.2 6.1 6.4 6.5 6.5 6.5 6.5 6.4 6.3 6.4 6.4 6.5 6.5 6.5 5.5 4.0 4.0 4.4 5.8 6.5 6.5 6.5 6.5 6.5 6.5 6.5 6.5 6.5 6.5 6.5 6.5 6.5 6.5 6.5 6.5 5.9 6.4 5.8 4.8 5.0 5.3 5.2 5.3
Wind_Speed
12 13 14 15 16 16 17 18 19 18 16 15 15 15 15 18 18 4 3 5 5 16 13 9 3 3 3 2 2 3 4 1 1 3 2 7 8 10 4 9 15 7 13 5 10
12 13 13 14 15 15 17 18 19 17 16 14 13 13 14 16 3 3 7 10 13 11 6 5 7 9 1 2 1 4 4 1 1 2 3 4 10 6 7 13 11 14 15 11 9
13 13 14 15 15 16 17 19 19 18 16 14 13 13 15 9 0 3 7 12 16 8 5 2 5 3 3 3 3 4 5 6 3 5 5 4 10 8 10 12 10 7 9 16 16
12 13 14 14 15 16 18 19 20 18 16 14 14 15 17 1 2 3 8 17 20 13 2 3 2 3 2 2 3 5 9 7 3 6 5 6 5 15 12 6 9 10 11 22 23
13 15 16 17 17 18 19 19 19 18 16 14 15 18 4 3 2 8 14 12 10 7 4 4 6 2 2 0 4 7 3 5 8 10 7 11 15 10 19 17 22 24 26 23 24
15 16 16 18 18 19 20 20 19 18 16 14 15 14 1 3 4 7 11 5 4 4 5 5 2 3 2 3 5 5 6 6 7 9 7 24 12 8 14 17 23 24 21 21 24
16 18 19 19 20 20 21 22 20 17 15 12 10 4 1 5 3 11 5 2 3 3 4 2 3 3 1 3 2 2 6 7 5 3 3 3 23 15 12 17 21 19 18 19 22
16 19 20 21 22 23 24 25 24 18 17 12 10 2 4 5 6 7 3 6 6 4 2 4 3 3 3 4 4 4 6 6 8 6 7 9 6 12 12 19 18 19 18 19 21
16 18 19 21 22 23 25 29 24 15 17 15 2 2 7 2 4 5 2 2 7 4 4 4 3 3 6 4 5 8 6 9 6 5 5 9 3 12 11 17 17 17 17 18 20
17 18 19 21 22 23 28 27 14 10 4 3 2 2 4 2 4 5 3 3 2 7 4 4 6 5 7 5 4 4 7 6 7 9 21 17 7 9 14 18 14 13 16 17 18
16 18 20 20 21 22 15 4 5 4 4 4 3 3 1 3 2 5 4 6 1 2 4 6 8 4 5 5 4 6 7 9 2 14 15 12 8 10 11 14 17 15 14 14 15
14 18 20 21 22 23 3 2 2 3 5 6 9 5 1 2 2 5 4 4 4 2 4 7 5 1 3 8 6 8 8 3 1 12 11 8 8 6 11 9 10 11 12 13 15
13 16 19 22 27 5 2 4 3 4 1 6 5 3 3 3 2 3 3 4 1 4 5 6 4 3 6 8 10 4 7 3 3 8 9 8 4 5 5 6 8 9 7 11 13
12 15 18 26 3 5 1 6 5 4 4 3 4 3 4 4 2 1 2 0 4 5 8 6 4 5 8 6 5 5 5 4 3 4 3 5 2 2 3 4 2 4 5 6 7
12 14 15 13 4 3 6 16 5 4 3 4 4 4 5 5 2 1 1 4 2 3 7 2 4 7 6 2 3 3 5 4 1 1 4 2 3 2 5 6 9 6 5 6 6
11 12 12 5 2 5 19 8 5 6 5 6 5 5 5 1 1 1 3 3 1 6 8 4 1 3 1 2 2 2 2 1 1 3 2 3 3 4 2 4 7 5 5 6 7
11 12 8 3 3 15 15 4 5 4 4 6 5 6 5 5 3 3 2 1 4 4 2 3 1 2 2 3 3 6 4 2 2 2 4 2 4 6 5 5 5 8 7 7 7
11 13 7 8 12 13 4 4 4 5 5 3 6 9 6 7 5 6 5 3 1 3 4 5 3 4 1 3 3 1 5 4 5 4 3 4 1 4 5 4 6 6 6 6 7
9 3 3 5 9 3 3 2 8 6 4 6 8 6 5 6 6 5 8 6 4 3 6 5 0 2 3 2 4 1 3 3 5 3 3 1 4 5 4 6 7 8 6 8 7
2 3 4 5 9 4 2 5 4 4 6 1 7 6 8 9 6 7 7 4 6 2 4 4 5 5 4 2 6 5 2 3 3 3 2 2 3 4 5 8 8 8 9 9 8
2 3 3 16 5 4 5 6 5 8 4 3 6 6 7 7 6 6 8 3 5 5 2 3 4 3 4 4 7 1 2 5 3 3 4 2 5 6 8 8 8 9 9 9 8
1 2 2 4 3 1 4 5 6 6 2 5 2 3 7 9 5 7 8 6 7 6 6 1 5 3 2 2 6 4 5 5 4 5 1 4 5 6 9 9 9 8 8 6 7
2 3 2 3 3 2 3 4 3 4 4 4 2 1 3 7 5 4 4 2 7 4 7 5 1 4 4 6 3 3 5 5 5 3 4 5 5 5 6 6 6 5 4 3 3
2 1 2 2 2 6 4 7 4 6 6 4 4 2 2 2 3 5 3 1 4 4 7 5 3 5 7 5 5 5 7 10 6 3 4 5 4 5 7 8 7 7 7 7 7
3 4 3 5 7 5 7 4 13 6 4 3 4 4 3 1 3 5 4 4 5 5 3 4 5 3 1 2 3 5 13 14 8 5 5 5 11 13 10 8 9 8 8 8 7
2 3 2 2 8 13 9 6 12 7 3 5 5 6 5 5 6 7 8 3 5 2 4 2 2 3 3 3 1 2 7 11 16 10 8 5 5 8 9 7 7 8 9 8 7
3 2 1 5 4 9 10 11 6 11 6 14 5 4 4 6 4 9 6 10 11 9 5 6 5 3 3 2 3 7 15 14 8 14 11 10 6 8 6 9 9 8 9 8 7
Wind_Direction
1 1 356 354 350 346 344 341 336 331 330 329 339 342 339 339 334 2 19 244 285 305 327 298 323 345 131 240 203 117 59 278 3 70 88 352 38 346 7 72 51 32 60 19 41
358 358 354 349 344 345 341 337 331 330 328 334 337 335 332 341 338 327 255 273 286 293 338 356 321 358 296 205 193 110 135 134 42 92 95 54 44 351 35 38 30 17 5 8 30
351 352 350 346 343 342 340 336 334 334 332 337 332 332 323 334 333 289 291 302 305 284 209 224 258 239 230 162 201 176 160 161 31 90 53 62 43 0 15 27 12 0 352 15 18
340 343 345 341 339 338 337 337 337 333 334 334 334 328 321 157 177 266 306 311 316 331 184 265 246 191 153 192 267 111 36 113 147 53 53 53 77 61 41 24 35 29 30 24 21
339 337 340 339 337 336 335 335 336 333 330 333 335 331 11 19 255 267 324 330 320 351 17 11 33 39 84 234 81 87 120 77 110 96 78 76 35 78 22 25 41 41 34 29 23
339 338 335 332 333 333 330 329 332 329 323 331 337 333 55 47 255 306 337 319 330 347 341 29 359 294 270 75 77 153 126 121 97 99 69 75 36 47 9 35 36 37 34 30 29
337 336 335 332 331 329 326 323 320 317 311 320 334 327 4 233 281 320 329 278 276 315 331 356 332 19 160 92 118 171 81 78 43 102 82 159 29 20 0 44 41 30 27 31 25
338 337 335 333 331 329 326 321 312 312 313 311 320 314 278 275 310 315 315 345 275 281 274 287 263 228 97 132 51 77 50 84 339 56 358 90 55 20 9 47 35 29 22 21 25
338 334 333 333 329 330 327 316 305 299 300 294 71 43 293 318 312 292 247 284 300 266 260 291 45 61 24 79 48 20 127 115 47 19 74 60 68 15 17 48 38 22 19 16 13
340 336 334 331 329 331 328 312 294 317 323 177 215 22 276 259 277 318 271 284 285 333 12 31 47 59 38 62 150 133 98 49 111 73 82 78 71 29 30 43 36 27 19 17 12
340 337 334 331 330 331 347 355 24 351 31 214 275 257 42 312 13 316 337 332 336 28 68 20 76 90 49 76 113 83 93 111 115 133 74 91 66 23 32 47 34 22 20 17 12
336 339 334 332 326 322 318 16 72 214 321 256 243 265 153 110 347 317 26 28 11 40 79 44 82 285 59 57 47 109 103 93 228 110 94 117 94 60 35 48 48 26 13 10 5
328 338 335 330 320 342 300 284 40 42 203 287 201 197 192 105 263 308 48 315 23 68 91 111 205 6 96 55 70 64 126 138 125 67 53 109 50 26 17 27 39 43 21 17 11
320 335 340 335 8 333 288 329 16 83 55 256 189 229 133 143 284 220 38 66 36 120 103 93 343 65 86 66 77 62 76 70 7 60 166 163 244 60 303 346 43 19 42 1 3
312 329 342 334 276 339 324 322 3 61 35 192 166 150 148 146 174 345 119 49 78 127 83 333 57 66 71 99 82 172 140 161 257 48 71 316 81 246 317 316 342 352 23 339 340
303 320 347 16 341 256 329 329 44 47 257 183 142 150 117 167 273 102 22 53 258 55 70 104 76 69 78 298 198 301 104 82 64 94 17 259 128 290 291 257 303 326 351 331 334
297 309 319 284 236 329 335 44 53 134 277 162 177 151 150 180 189 130 137 360 130 102 120 68 102 150 66 91 37 52 88 47 24 19 219 156 51 230 254 261 276 309 305 306 303
297 307 272 233 263 319 20 62 110 231 218 137 137 141 169 152 202 182 129 186 249 140 136 149 187 174 209 133 163 56 130 149 170 175 187 2 189 263 235 259 265 286 280 288 282
315 306 281 254 219 114 94 81 207 213 201 157 122 155 219 180 150 160 165 188 172 161 152 136 142 103 104 79 119 238 53 162 104 20 73 178 318 305 241 272 249 264 264 264 258
352 311 254 192 154 78 155 238 248 235 354 208 164 173 187 180 133 149 167 195 161 152 108 168 120 182 187 114 11 126 141 64 6 119 206 248 236 229 234 253 250 257 250 257 252
48 305 258 161 97 71 196 225 282 264 250 293 201 172 182 188 139 168 187 153 156 163 151 128 103 215 103 190 168 103 103 54 107 134 158 177 255 213 204 208 226 242 254 254 265
121 258 307 127 97 179 183 198 312 290 218 265 326 220 169 163 153 178 183 181 157 141 141 164 125 138 181 100 132 148 162 127 121 250 167 139 272 223 200 207 209 240 252 263 247
199 244 260 94 160 248 257 239 287 327 321 306 260 241 31 164 152 126 109 357 125 99 157 180 109 97 11 351 315 169 170 131 119 94 203 137 257 211 224 228 229 211 150 127 168
182 225 298 174 166 168 172 221 221 282 265 261 292 201 348 139 84 138 125 113 76 105 110 95 137 153 181 206 155 184 174 158 140 133 177 217 203 204 209 191 161 136 129 115 108
200 220 208 194 197 177 184 199 201 214 240 254 281 226 166 146 91 114 95 103 53 129 79 104 183 193 177 61 159 168 178 181 187 190 162 226 197 200 197 179 166 156 138 118 101
195 193 224 231 162 195 193 222 222 221 238 242 225 279 198 188 189 181 133 165 183 191 130 93 214 95 327 277 51 269 213 206 203 203 226 237 228 200 171 142 143 151 129 116 107
288 294 177 204 176 181 210 203 192 212 272 240 254 267 242 215 198 170 179 164 158 144 150 140 129 102 232 330 73 316 227 221 201 208 194 216 203 158 154 160 152 146 131 131 129